Home > Weather > Valencia > Past weeks

Flag for Venezuela Weather for the Past 2 Weeks in Valencia, Venezuela

Now
97 °F

Passing clouds.


Feels Like: 100 °F
Forecast: N/A
Wind: N/A

Location: Valencia Airport

Current Time: Feb 10, 2016 at 4:32:02 PM

Latest Report: Feb 10, 2016 at 3:30 PM


Visibility: N/A

Pressure: 29.92 "Hg

Humidity: 37%

Dew point: 66 °F

Location of ValenciaLocation

Historic Weather in Valencia — Graph

°F

Valencia Temperature Yesterday

Maximum temperature yesterday: 97 °F (at 3:30 PM)
Minimum temperature yesterday: 75 °F (at 5:30 AM)
Average temperature yesterday: 86 °F

High & Low Weather Summary for the Past Weeks

 TemperatureHumidityPressure
High99 °F (Feb 8, 2:30 PM)89% (Feb 8, 6:30 AM)30.09 "Hg (Feb 8, 6:30 AM)
Low72 °F (Jan 27, 6:30 AM)34% (Feb 10, 2:30 PM)29.83 "Hg (Feb 3, 4:30 PM)
Average83 °F63%29.96 "Hg
* Reported Jan 26 2:30 PM — Feb 10 2:30 PM, Valencia, Weather by CustomWeather, © 2016

Note: Actual official high and low records may vary slightly from our data, if they occured in-between our weather recording intervals... More about our weather records

Advertising

Valencia Weather History for the Previous 24 Hours

 ConditionsComfort  
Time TempWeatherWind HumidityBarometerVisibility
2:30 PM
Wed, Feb 10
97 °FPassing clouds.N/A34%29.92 "HgN/A
1:30 PM95 °FPassing clouds.N/A41%29.95 "HgN/A
12:30 PM93 °FPassing clouds.N/A41%30.01 "HgN/A
11:30 AM90 °FPassing clouds.N/A49%30.09 "HgN/A
10:30 AM84 °FPassing clouds.N/A55%30.09 "HgN/A
9:30 AM82 °FSunny.N/A58%30.09 "Hg10 mi
8:30 AM79 °FSunny.N/A65%30.07 "Hg10 mi
7:30 AM75 °FPassing clouds.N/A74%30.01 "HgN/A
6:30 AM75 °FPassing clouds.N/A74%29.98 "HgN/A
5:30 AM75 °FClear.N/A74%29.98 "Hg10 mi
4:30 AM73 °FClear.N/A74%29.98 "Hg10 mi
1:30 AM79 °FClear.N/A70%29.98 "Hg10 mi
10:30 PM
Tue, Feb 9
82 °FClear.N/A66%29.95 "Hg10 mi
9:30 PM82 °FClear.N/A66%29.95 "Hg10 mi
8:30 PM84 °FClear.N/A58%29.95 "Hg10 mi
7:30 PM90 °FPassing clouds.N/A36%29.89 "HgN/A
6:30 PM90 °FPartly cloudy.N/A46%29.89 "HgN/A
5:30 PM93 °FScattered clouds.N/A44%29.89 "HgN/A
4:30 PM95 °FBroken clouds.N/A44%29.89 "HgN/A
Weather by CustomWeather, © 2016

See weather overviewHow to use our weather pages